Tracking 35274 objects as of 10-Sep-2026
HD Live streaming from Space Station
objects crossing your sky now

ISS DEB


ISS DEB is no longer on orbit


NORAD ID: 57163
Int'l Code: 1998-067VN
Launch date: November 20, 1998
Source: Commonwealth of Independent States (former USSR) (CIS)
Launch site: TYURATAM MISSILE AND SPACE COMPLEX (TTMTR)
Decay date: 2024-01-03

Note: This is SATELLITE DEBRIS
Your satellite tracking list
Your tracking list is empty




NASA's NSSDC Master Catalog

Two Line Element Set (TLE):
1 57163U 98067VN  24001.23427334  .09020587  12427-4  70118-3 0  9998
2 57163  51.6042  41.4737 0002731  13.5797 346.5302 16.39447038 30206
Source of the keplerian elements: AFSPC